| time (UTC) | temp C | wind direction | speed KPH | gust KPH | rain 1hr cm | rain 24hr cm | rain mn cm | humidity % | barometer mb |
| 20260904044041 | 16 | 205 | 4.8 | 6.4 | 0.00 | 0.18 | 0.00 | 96 | 1016.6 |
| 20260904043038 | 16 | 210 | 3.2 | 6.4 | 0.00 | 0.18 | 0.00 | 96 | 1016.7 |
| 20260904042035 | 16 | 203 | 3.2 | 6.4 | 0.00 | 0.18 | 0.00 | 97 | 1016.6 |
| 20260904041032 | 16 | 206 | 4.8 | 8.0 | 0.00 | 0.18 | 0.00 | 97 | 1016.7 |
| 20260904040028 | 16 | 233 | 3.2 | 6.4 | 0.00 | 0.18 | 0.00 | 95 | 1016.8 |
| 20260904034022 | 16 | 187 | 3.2 | 8.0 | 0.00 | 0.18 | 0.00 | 94 | 1016.9 |
| 20260904033019 | 16 | 203 | 1.6 | 6.4 | 0.00 | 0.18 | 0.00 | 95 | 1016.9 |
| 20260904032016 | 15 | 199 | 4.8 | 9.7 | 0.00 | 0.18 | 0.00 | 97 | 1016.8 |
| 20260904031113 | 13 | 207 | 1.6 | 6.4 | 0.00 | 0.18 | 0.00 | 99 | 1016.9 |
| 20260904030109 | 12 | 0.0 | 0.0 | 0.00 | 0.18 | 0.00 | 99 | 1017.0 | |
| 20260904025126 | 12 | 0.0 | 0.0 | 0.00 | 0.18 | 0.00 | 99 | 1017.1 | |
| 20260904023100 | 13 | 0.0 | 0.0 | 0.00 | 0.18 | 0.00 | 99 | 1017.3 | |
| 20260904022057 | 14 | 0.0 | 0.0 | 0.00 | 0.18 | 0.00 | 99 | 1017.4 | |
| 20260904021055 | 14 | 0.0 | 1.6 | 0.00 | 0.18 | 0.00 | 99 | 1017.3 | |
| 20260904020050 | 13 | 258 | 1.6 | 6.4 | 0.00 | 0.18 | 0.00 | 99 | 1017.2 |
| 20260904012038 | 13 | 0.0 | 0.0 | 0.00 | 0.18 | 0.00 | 99 | 1017.7 | |
| 20260904011035 | 12 | 0.0 | 0.0 | 0.00 | 0.18 | 0.00 | 99 | 1017.5 | |
| 20260904010032 | 12 | 0.0 | 0.0 | 0.00 | 0.18 | 0.00 | 99 | 1017.6 | |
| 20260904004025 | 13 | 0.0 | 0.0 | 0.00 | 0.18 | 0.00 | 99 | 1017.6 | |
| 20260904003042 | 13 | 0.0 | 0.0 | 0.00 | 0.18 | 0.00 | 99 | 1017.8 | |
| 20260904002019 | 14 | 0.0 | 0.0 | 0.00 | 0.18 | 0.00 | 99 | 1018.0 | |
| 20260904001016 | 13 | 0.0 | 0.0 | 0.00 | 0.18 | 0.00 | 99 | 1018.0 | |
| 20260904000113 | 13 | 0.0 | 0.0 | 0.00 | 0.18 | 0.00 | 99 | 1018.0 | |
| 20260903235110 | 14 | 0.0 | 0.0 | 0.00 | 0.18 | 0.00 | 99 | 1018.2 | |
| 20260903234107 | 14 | 0.0 | 0.0 | 0.00 | 0.18 | 0.00 | 99 | 1018.3 | |
| 20260903232059 | 15 | 0.0 | 0.0 | 0.00 | 0.18 | 0.00 | 99 | 1018.5 | |
| 20260903231056 | 15 | 0.0 | 0.0 | 0.00 | 0.18 | 0.00 | 99 | 1018.5 | |
| 20260903230053 | 15 | 0.0 | 0.0 | 0.00 | 0.18 | 0.00 | 99 | 1018.4 | |
| 20260903225050 | 15 | 0.0 | 0.0 | 0.00 | 0.18 | 0.00 | 99 | 1018.5 | |
| 20260903224046 | 15 | 0.0 | 0.0 | 0.00 | 0.18 | 0.00 | 99 | 1018.7 | |
| 20260903223103 | 15 | 0.0 | 0.0 | 0.00 | 0.18 | 0.00 | 99 | 1018.7 | |
| 20260903222040 | 15 | 0.0 | 0.0 | 0.00 | 0.18 | 0.00 | 99 | 1018.6 | |
| 20260903221037 | 15 | 0.0 | 0.0 | 0.00 | 0.18 | 0.00 | 99 | 1018.6 | |
| 20260903220034 | 15 | 0.0 | 0.0 | 0.00 | 0.18 | 0.00 | 99 | 1018.7 | |
| 20260903215031 | 15 | 0.0 | 0.0 | 0.00 | 0.18 | 0.18 | 99 | 1018.7 | |
| 20260903213024 | 15 | 0.0 | 0.0 | 0.00 | 0.18 | 0.18 | 99 | 1018.5 | |
| 20260903212017 | 16 | 0.0 | 0.0 | 0.00 | 0.18 | 0.18 | 99 | 1018.6 | |
| 20260903205106 | 16 | 0.0 | 0.0 | 0.00 | 0.18 | 0.18 | 99 | 1018.6 | |
| 20260903204103 | 16 | 0.0 | 0.0 | 0.00 | 0.18 | 0.18 | 99 | 1018.9 | |
| 20260903202057 | 16 | 0.0 | 0.0 | 0.00 | 0.18 | 0.18 | 99 | 1018.8 | |
| 20260903201036 | 16 | 0.0 | 0.0 | 0.00 | 0.18 | 0.18 | 99 | 1018.8 | |
| 20260903200033 | 16 | 0.0 | 1.6 | 0.00 | 0.18 | 0.18 | 99 | 1018.8 | |
| 20260903194026 | 16 | 0.0 | 1.6 | 0.00 | 0.18 | 0.18 | 99 | 1018.3 | |
| 20260903193021 | 16 | 0.0 | 0.0 | 0.00 | 0.18 | 0.18 | 99 | 1018.2 | |
| 20260903191115 | 17 | 0.0 | 0.0 | 0.00 | 0.18 | 0.18 | 99 | 1018.4 | |
| 20260903190111 | 16 | 0.0 | 0.0 | 0.00 | 0.18 | 0.18 | 99 | 1018.6 | |
| 20260903185108 | 16 | 0.0 | 0.0 | 0.00 | 0.18 | 0.18 | 99 | 1018.5 | |
| 20260903184105 | 16 | 0.0 | 0.0 | 0.00 | 0.18 | 0.18 | 99 | 1018.4 | |
| 20260903183102 | 17 | 0.0 | 0.0 | 0.00 | 0.18 | 0.18 | 99 | 1018.3 | |
| 20260903182059 | 17 | 0.0 | 0.0 | 0.00 | 0.18 | 0.18 | 99 | 1018.3 | |
| 20260903181056 | 17 | 0.0 | 0.0 | 0.00 | 0.18 | 0.18 | 99 | 1018.0 | |
| 20260903180113 | 17 | 0.0 | 0.0 | 0.00 | 0.18 | 0.18 | 99 | 1018.0 | |
| 20260903175040 | 17 | 0.0 | 0.0 | 0.00 | 0.18 | 0.18 | 98 | 1018.0 | |
| 20260903174036 | 18 | 0.0 | 0.0 | 0.00 | 0.18 | 0.18 | 98 | 1018.0 | |
| 20260903173033 | 18 | 0.0 | 0.0 | 0.00 | 0.18 | 0.18 | 98 | 1017.9 | |
| 20260903171027 | 18 | 0.0 | 3.2 | 0.00 | 0.18 | 0.18 | 98 | 1018.0 | |
| 20260903170023 | 18 | 0.0 | 1.6 | 0.00 | 0.18 | 0.18 | 98 | 1017.9 | |
| 20260903165019 | 18 | 0.0 | 0.0 | 0.00 | 0.18 | 0.18 | 98 | 1018.1 | |
| 20260903164016 | 18 | 0.0 | 0.0 | 0.00 | 0.18 | 0.18 | 97 | 1018.2 | |
| 20260903163113 | 18 | 0.0 | 0.0 | 0.00 | 0.18 | 0.18 | 97 | 1018.2 | |
| 20260903162111 | 18 | 0.0 | 0.0 | 0.00 | 0.18 | 0.18 | 97 | 1018.2 | |
| 20260903161107 | 18 | 0.0 | 1.6 | 0.00 | 0.18 | 0.18 | 97 | 1018.2 | |
| 20260903153053 | 18 | 0.0 | 0.0 | 0.00 | 0.18 | 0.18 | 96 | 1018.3 | |
| 20260903152050 | 17 | 0.0 | 3.2 | 0.00 | 0.18 | 0.18 | 96 | 1018.3 | |
| 20260903151047 | 17 | 0.0 | 0.0 | 0.00 | 0.18 | 0.18 | 97 | 1018.3 | |
| 20260903150044 | 18 | 0.0 | 0.0 | 0.00 | 0.18 | 0.18 | 97 | 1018.4 | |
| 20260903145041 | 18 | 180 | 0.0 | 3.2 | 0.00 | 0.18 | 0.18 | 96 | 1018.5 |
| 20260903143035 | 18 | 220 | 1.6 | 4.8 | 0.00 | 0.18 | 0.18 | 96 | 1018.5 |
| 20260903142032 | 18 | 180 | 0.0 | 3.2 | 0.03 | 0.18 | 0.18 | 95 | 1018.6 |
| 20260903141025 | 17 | 0.0 | 0.0 | 0.10 | 0.18 | 0.18 | 96 | 1018.6 | |
| 20260903135037 | 17 | 0.0 | 0.0 | 0.18 | 0.18 | 0.18 | 98 | 1018.9 | |
| 20260903134111 | 17 | 0.0 | 0.0 | 0.18 | 0.18 | 0.18 | 98 | 1018.9 | |
| 20260903133108 | 17 | 0.0 | 1.6 | 0.18 | 0.18 | 0.18 | 97 | 1019.2 | |
| 20260903132104 | 17 | 0.0 | 1.6 | 0.15 | 0.15 | 0.15 | 95 | 1019.4 | |
| 20260903131101 | 18 | 0.0 | 1.6 | 0.10 | 0.10 | 0.10 | 92 | 1019.5 | |
| 20260903125055 | 21 | 239 | 1.6 | 8.0 | 0.00 | 0.00 | 0.00 | 76 | 1019.6 |
| 20260903124052 | 22 | 225 | 0.0 | 6.4 | 0.00 | 0.00 | 0.00 | 68 | 1019.3 |
| 20260903122045 | 22 | 0.0 | 1.6 | 0.00 | 0.00 | 0.00 | 64 | 1019.0 | |
| 20260903121042 | 22 | 192 | 3.2 | 8.0 | 0.00 | 0.00 | 0.00 | 64 | 1018.9 |
| 20260903115036 | 23 | 219 | 3.2 | 12.9 | 0.00 | 0.00 | 0.00 | 62 | 1019.1 |
| 20260903114033 | 23 | 0 | 1.6 | 6.4 | 0.00 | 0.00 | 0.00 | 60 | 1019.2 |
| 20260903113030 | 23 | 207 | 1.6 | 9.7 | 0.00 | 0.00 | 0.00 | 60 | 1019.4 |
| 20260903112047 | 23 | 281 | 3.2 | 9.7 | 0.00 | 0.00 | 0.00 | 59 | 1019.3 |
| 20260903111023 | 23 | 201 | 1.6 | 8.0 | 0.00 | 0.00 | 0.00 | 60 | 1019.4 |
| 20260903110040 | 22 | 225 | 1.6 | 4.8 | 0.00 | 0.00 | 0.00 | 60 | 1019.4 |
| 20260903105016 | 22 | 217 | 8.0 | 22.5 | 0.00 | 0.00 | 0.00 | 62 | 1019.7 |
| 20260903102106 | 21 | 203 | 1.6 | 12.9 | 0.00 | 0.00 | 0.00 | 68 | 1019.9 |
| 20260903101123 | 21 | 207 | 1.6 | 6.4 | 0.00 | 0.00 | 0.00 | 66 | 1020.1 |
| 20260903100100 | 21 | 260 | 3.2 | 9.7 | 0.00 | 0.00 | 0.00 | 67 | 1020.1 |
| 20260903095057 | 20 | 214 | 1.6 | 6.4 | 0.00 | 0.00 | 0.00 | 67 | 1020.2 |
| 20260903094054 | 20 | 230 | 1.6 | 11.3 | 0.00 | 0.00 | 0.00 | 68 | 1020.4 |
| 20260903093050 | 20 | 249 | 3.2 | 6.4 | 0.00 | 0.00 | 0.00 | 67 | 1020.2 |
| 20260903092047 | 20 | 226 | 1.6 | 6.4 | 0.00 | 0.00 | 0.00 | 65 | 1020.2 |
| 20260903091104 | 20 | 192 | 3.2 | 8.0 | 0.00 | 0.00 | 0.00 | 67 | 1020.1 |
| 20260903090041 | 20 | 225 | 1.6 | 9.7 | 0.00 | 0.00 | 0.00 | 67 | 1020.0 |
| 20260903085038 | 20 | 222 | 1.6 | 12.9 | 0.00 | 0.00 | 0.00 | 71 | 1020.2 |
| 20260903083051 | 19 | 203 | 1.6 | 8.0 | 0.00 | 0.00 | 0.00 | 73 | 1020.2 |
| 20260903082108 | 18 | 222 | 4.8 | 14.5 | 0.00 | 0.00 | 0.00 | 74 | 1020.2 |
| 20260903075019 | 16 | 158 | 0.0 | 3.2 | 0.00 | 0.00 | 0.00 | 87 | 1019.8 |
| 20260903074016 | 16 | 186 | 1.6 | 6.4 | 0.00 | 0.00 | 0.00 | 87 | 1019.6 |
| 20260903073113 | 16 | 270 | 0.0 | 4.8 | 0.00 | 0.00 | 0.00 | 88 | 1019.8 |
| 20260903072110 | 15 | 90 | 0.0 | 3.2 | 0.00 | 0.00 | 0.00 | 90 | 1020.0 |
| 20260903070103 | 14 | 45 | 1.6 | 4.8 | 0.00 | 0.00 | 0.00 | 93 | 1020.3 |
| 20260903065100 | 13 | 0.0 | 3.2 | 0.00 | 0.00 | 0.00 | 94 | 1020.3 | |
| 20260903064117 | 13 | 0.0 | 3.2 | 0.00 | 0.00 | 0.00 | 96 | 1020.3 | |
| 20260903063054 | 12 | 0.0 | 3.2 | 0.00 | 0.00 | 0.00 | 97 | 1020.3 | |
| 20260903062051 | 11 | 0.0 | 3.2 | 0.00 | 0.00 | 0.00 | 99 | 1020.5 | |
| 20260903061128 | 11 | 0.0 | 0.0 | 0.00 | 0.00 | 0.00 | 99 | 1020.4 | |
| 20260903060044 | 11 | 0.0 | 0.0 | 0.00 | 0.00 | 0.00 | 99 | 1020.6 | |
| 20260903054038 | 10 | 0.0 | 0.0 | 0.00 | 0.00 | 0.00 | 99 | 1020.5 | |
| 20260903053055 | 9 | 0.0 | 0.0 | 0.00 | 0.00 | 0.00 | 99 | 1020.3 | |
| 20260903052052 | 8 | 0.0 | 0.0 | 0.00 | 0.00 | 0.00 | 99 | 1020.2 | |
| 20260903051029 | 8 | 0.0 | 0.0 | 0.00 | 0.00 | 0.00 | 99 | 1020.1 |